Regional Weather Roundup
Issued by NWS

Home | Current Version | Previous Version | Text Only | Print | Product List | Glossary Off
Versions: 1 2 3 4 5 6 7 8 9 10 11 12 13 14 15 16 17 18 19 20 21 22 23 24 25 26 27 28 29 30 31 32 33 34 35 36 37 38 39 40 41 42 43 44 45 46 47 48 49 50

000
ASUS43 KLOT 251009
RWRIL

ILLINOIS REGIONAL WEATHER ROUNDUP
NATIONAL WEATHER SERVICE CHICAGO/ROMEOVILLE IL
500 AM CDT TUE JUL 25 2017

NOTE: "FAIR" INDICATES FEW OR NO CLOUDS BELOW 12,000 FEET WITH NO
SIGNIFICANT WEATHER AND/OR OBSTRUCTIONS TO VISIBILITY.

* THESE STATIONS ARE NOT UNDER NWS QUALITY CONTROL. THEY ALSO MAY NOT
  REPORT WEATHER SUCH AS PRECIPITATION OR FOG.

ILZ001-002-007-009-015-016-024-251100-
NORTHWEST ILLINOIS

CITY           SKY/WX    TMP DP  RH WIND       PRES   REMARKS
MOLINE         CLEAR     60  57  89 E8        30.13S
STERLING*      CLEAR     57  57 100 E3        30.16R
SAVANNA*       CLEAR     58  57  97 E6        30.15F
$$

ILZ003-004-008-010-011-017-018-251100-
NORTH CENTRAL ILLINOIS

CITY           SKY/WX    TMP DP  RH WIND       PRES   REMARKS
ROCKFORD       PTCLDY    60  57  89 CALM      30.18R
FREEPORT*        N/A     53  53  99 CALM      30.19R FOG
ROCHELLE*      CLEAR     56  55  99 CALM      30.17R
DE KALB*       CLEAR     58  57  97 CALM      30.18R
PERU*          CLEAR    N/A N/A N/A NE5       30.15S
$$

ILZ005-006-012>014-019>023-251100-
NORTHEAST ILLINOIS

CITY           SKY/WX    TMP DP  RH WIND       PRES   REMARKS
CHICAGO-OHARE  PTCLDY    63  59  87 CALM      30.16R
CHICAGO-MIDWAY PTCLDY    66  62  87 SE3       30.16R
AURORA         CLEAR     57  56  96 CALM      30.16S
LANSING*       CLEAR     59  56  90 SE3       30.16S
JOLIET*        CLEAR     61  61 100 CALM      30.16S
WAUKEGAN       CLEAR     57  57 100 CALM      30.17R
DUPAGE AIRPORT CLEAR     58  58 100 CALM      30.15S
WHEELING       CLEAR     62  62 100 CALM      30.17S
MORRIS*        CLEAR     59  58  96 CALM      30.14F
ROMEOVILLE*    CLEAR     60  58  90 SE6       30.16S
NORTHERLY ISL    N/A     68  60  75 S3          N/A
$$

LMZ740>746-251100-
SOUTHERN LAKE MICHIGAN

STATION/POSITION SKY/WX   TEMP    WIND        PRES    VSBY  WAVE
                          AIR SEA DIR/SP/G                  HT/PER
                          (F)     (DEG/KT/KT) (MB)    (MI)  (FT/S)
SOUTHERN BUOY              70 71   40/  4/  4 1021.0          2/ 5
WILMETTE HARBOR            70 72  140/  6/  8   N/A           2/ 5
HARRISON CRIB              70     150/  9/ 11   N/A
BURNHAM HARBOR             67                   N/A
CALUMET HARBOR             66     170/  2/  2 1020.7R
BURNS HARBOR               66     110/  2/  4 1022.0R
MICHIGAN CITY              63     120/  5/  6   N/A
MICHIGAN CITY 6N           67 74  130/  8/ 10   N/A           3/ 5
ST. JOSEPH                 64 71  160/  8/ 10 1021.8          2/ 5
$$

ILZ025>027-034>036-040-047-049-050-058-095>099-251100-
WEST-CENTRAL ILLINOIS

CITY           SKY/WX    TMP DP  RH WIND       PRES   REMARKS
QUINCY         CLEAR     66  63  90 E6        30.09S
GALESBURG*     CLEAR     61  59  93 E5        30.15R
MACOMB*        CLEAR     59  59 100 NE3       30.14R FOG
JACKSONVILLE*  PTCLDY    63  61  94 CALM      30.11R
PITTSFIELD*    PTCLDY    66  65  94 NE5       30.11S
$$

ILZ028>032-037-038-041>044-048-051>054-059>061-251100-
CENTRAL ILLINOIS

CITY           SKY/WX    TMP DP  RH WIND       PRES   REMARKS
PONTIAC        CLEAR     61  60  97 E6        30.15S
BLOOMINGTON    CLEAR     58  57  97 E6        30.15R FOG
DECATUR        CLEAR     62  60  93 E7        30.11S
PEORIA         CLEAR     63  61  93 E6        30.13S
LACON*         CLEAR     60  59  98 CALM      30.14R
LINCOLN*       CLEAR     62  62  99 NE5       30.12S
SPRINGFIELD    CLEAR     64  62  93 NE6       30.11R
TAYLORVILLE    CLEAR     64  62  93 NE5       30.11R
$$

ILZ033-039-045-046-055>057-062-063-251100-
EAST-CENTRAL ILLINOIS

CITY           SKY/WX    TMP DP  RH WIND       PRES   REMARKS
CHAMPAIGN      CLEAR     61  59  93 E7        30.13S
RANTOUL*       CLEAR     62  61  96 E5        30.14S
MATTOON        CLEAR     63  63 100 E6        30.11R
PARIS*         CLEAR     60  60 100 NE3       30.14R
$$

ILZ079-100>102-251100-
SOUTHWEST ILLINOIS

CITY           SKY/WX    TMP DP  RH WIND       PRES   REMARKS
ALTON          CLOUDY    68  66  94 CALM      30.09R
BELLEVILLE     CLEAR     71  67  89 NE3       30.08R
CAHOKIA*       CLOUDY    72  67  84 E6        30.07R
SPARTA*        CLOUDY    72  67  86 E6        30.07R
$$

ILZ064>066-069>071-074>076-080>082-084>086-088>090-092>094-251100-
SOUTH-CENTRAL ILLINOIS

CITY           SKY/WX    TMP DP  RH WIND       PRES   REMARKS
CARBONDALE     CLOUDY    71  70  96 NE3       30.06R
CAIRO*         CLOUDY    75  73  92 N6        30.05R
EFFINGHAM*     MOCLDY    67  66  95 NE6       30.11S
MARION         CLEAR     72  72 100 CALM      30.07R
MT. VERNON     MOCLDY    71  67  87 NE8       30.08R
CENTRALIA*     MOCLDY    71  68  90 E6        30.08R
SALEM*         MOCLDY    71  66  83 E5        30.09R
METROPOLIS*    PTCLDY    75  72  90 CALM      30.06R
$$

ILZ067-068-072-073-078-083-087-091-251100-
SOUTHEAST ILLINOIS

CITY           SKY/WX    TMP DP  RH WIND       PRES   REMARKS
LAWRENCEVILLE  CLEAR     67  65  93 NE7       30.10R
FLORA*         PTCLDY    70  67  89 NE5       30.10R
FAIRFIELD*     MOCLDY    69  68  96 NE3       30.08R
HARRISBURG*    CLEAR     71  69  93 NE3       30.07R
ROBINSON*      CLEAR     65  63  93 E5        30.11S
CARMI*         PTCLDY    70  69  96 NE3       30.07R
$$

ABBREVIATIONS USED IN REMARKS
   TC - TEMPERATURE IN CELSIUS
  WCI - WIND CHILL INDEX
   HX - HEAT INDEX
  VSB - VISIBILITY
$$




USA.gov is the U.S. government's official web portal to all federal, state and local government web resources and services.